Time,TemperatureF,DewpointF,PressureIn,WindDirection,WindDirectionDegrees,WindSpeedMPH,WindSpeedGustMPH,Humidity,HourlyPrecipIn,Conditions,Clouds,dailyrainin,SoftwareType,DateUTC
2013-05-03 00:05:00,34.6,24.4,30.53,NNE,23,7.0,7.0,66,0.00,,,0.00,Wunderground v.1.15,2013-05-03 05:05:00,
2013-05-03 00:10:00,34.4,24.2,30.53,North,359,7.0,7.0,66,0.00,,,0.00,Wunderground v.1.15,2013-05-03 05:10:00,
2013-05-03 00:20:00,34.2,24.4,30.53,NNE,18,6.0,6.0,67,0.00,,,0.00,Wunderground v.1.15,2013-05-03 05:20:00,
2013-05-03 00:25:00,34.0,24.2,30.53,NNE,22,6.0,6.0,67,0.00,,,0.00,Wunderground v.1.15,2013-05-03 05:25:00,
2013-05-03 00:35:00,33.8,24.4,30.53,NNE,16,6.0,6.0,68,0.00,,,0.00,Wunderground v.1.15,2013-05-03 05:35:00,
2013-05-03 00:40:00,33.8,24.4,30.53,NNE,21,6.0,8.0,68,0.00,,,0.00,Wunderground v.1.15,2013-05-03 05:40:00,
2013-05-03 00:50:00,33.6,24.5,30.52,North,354,6.0,10.0,69,0.00,,,0.00,Wunderground v.1.15,2013-05-03 05:50:00,
2013-05-03 00:55:00,33.5,24.4,30.52,NNW,337,6.0,10.0,69,0.00,,,0.00,Wunderground v.1.15,2013-05-03 05:55:00,
2013-05-03 01:05:00,33.2,24.1,30.52,NNE,24,6.0,8.0,69,0.00,,,0.00,Wunderground v.1.15,2013-05-03 06:05:00,
2013-05-03 01:15:00,33.0,24.3,30.52,NNE,21,6.0,6.0,70,0.00,,,0.00,Wunderground v.1.15,2013-05-03 06:15:00,
2013-05-03 01:25:00,32.8,24.4,30.52,NNE,31,6.0,6.0,71,0.00,,,0.00,Wunderground v.1.15,2013-05-03 06:25:00,
2013-05-03 01:35:00,32.7,24.3,30.51,NNE,22,6.0,8.0,71,0.00,,,0.00,Wunderground v.1.15,2013-05-03 06:35:00,
2013-05-03 01:45:00,32.6,24.2,30.51,North,354,6.0,8.0,71,0.00,,,0.00,Wunderground v.1.15,2013-05-03 06:45:00,
2013-05-03 01:50:00,32.6,24.2,30.51,NNW,335,6.0,6.0,71,0.00,,,0.00,Wunderground v.1.15,2013-05-03 06:50:00,
2013-05-03 02:00:00,32.5,24.1,30.50,NNE,31,7.0,7.0,71,0.00,,,0.00,Wunderground v.1.15,2013-05-03 07:00:00,
2013-05-03 02:05:00,32.4,24.0,30.50,North,359,7.0,7.0,71,0.00,,,0.00,Wunderground v.1.15,2013-05-03 07:05:00,
2013-05-03 02:15:00,32.2,23.8,30.49,NNE,18,7.0,7.0,71,0.00,,,0.00,Wunderground v.1.15,2013-05-03 07:15:00,
2013-05-03 02:20:00,32.1,24.1,30.49,NNW,338,7.0,7.0,72,0.00,,,0.00,Wunderground v.1.15,2013-05-03 07:20:00,
2013-05-03 02:30:00,31.9,23.9,30.49,North,359,6.0,6.0,72,0.00,,,0.00,Wunderground v.1.15,2013-05-03 07:30:00,
2013-05-03 02:40:00,31.8,23.8,30.49,NNW,331,7.0,8.0,72,0.00,,,0.00,Wunderground v.1.15,2013-05-03 07:40:00,
2013-05-03 02:45:00,31.8,24.1,30.49,NNE,19,7.0,9.0,73,0.00,,,0.00,Wunderground v.1.15,2013-05-03 07:45:00,
2013-05-03 02:55:00,31.6,23.9,30.49,North,349,6.0,9.0,73,0.00,,,0.00,Wunderground v.1.15,2013-05-03 07:55:00,
2013-05-03 03:05:00,31.6,23.9,30.48,NNE,24,6.0,6.0,73,0.00,,,0.00,Wunderground v.1.15,2013-05-03 08:05:00,
2013-05-03 03:15:00,31.4,23.7,30.48,North,4,7.0,7.0,73,0.00,,,0.00,Wunderground v.1.15,2013-05-03 08:15:00,
2013-05-03 03:25:00,31.3,24.0,30.48,NE,35,7.0,7.0,74,0.00,,,0.00,Wunderground v.1.15,2013-05-03 08:25:00,
2013-05-03 03:35:00,31.1,23.8,30.47,NNE,14,6.0,6.0,74,0.00,,,0.00,Wunderground v.1.15,2013-05-03 08:35:00,
2013-05-03 03:40:00,31.0,23.7,30.47,NNE,22,7.0,7.0,74,0.00,,,0.00,Wunderground v.1.15,2013-05-03 08:40:00,
2013-05-03 03:50:00,30.7,23.7,30.47,NE,36,6.0,6.0,75,0.00,,,0.00,Wunderground v.1.15,2013-05-03 08:50:00,
2013-05-03 04:00:00,30.6,23.6,30.46,NE,35,6.0,6.0,75,0.00,,,0.00,Wunderground v.1.15,2013-05-03 09:00:00,
2013-05-03 04:05:00,30.6,23.6,30.47,North,4,6.0,6.0,75,0.00,,,0.00,Wunderground v.1.15,2013-05-03 09:05:00,
2013-05-03 04:15:00,30.5,23.8,30.46,North,349,5.0,7.0,76,0.00,,,0.00,Wunderground v.1.15,2013-05-03 09:15:00,
2013-05-03 04:20:00,30.5,23.8,30.46,NNE,19,6.0,7.0,76,0.00,,,0.00,Wunderground v.1.15,2013-05-03 09:20:00,
2013-05-03 04:30:00,30.4,23.7,30.47,NNE,13,5.0,7.0,76,0.00,,,0.00,Wunderground v.1.15,2013-05-03 09:30:00,
2013-05-03 04:35:00,30.4,23.4,30.47,NNE,15,5.0,7.0,75,0.00,,,0.00,Wunderground v.1.15,2013-05-03 09:35:00,
2013-05-03 04:45:00,30.4,23.7,30.46,NNE,18,6.0,7.0,76,0.00,,,0.00,Wunderground v.1.15,2013-05-03 09:45:00,
2013-05-03 04:55:00,30.5,23.8,30.46,NNE,26,6.0,8.0,76,0.00,,,0.00,Wunderground v.1.15,2013-05-03 09:55:00,
2013-05-03 05:00:00,30.6,23.9,30.46,NNE,16,7.0,7.0,76,0.00,,,0.00,Wunderground v.1.15,2013-05-03 10:00:00,
2013-05-03 05:05:00,30.6,23.6,30.46,North,4,7.0,7.0,75,0.00,,,0.00,Wunderground v.1.15,2013-05-03 10:05:00,
2013-05-03 05:15:00,30.7,23.7,30.46,NNE,16,7.0,8.0,75,0.00,,,0.00,Wunderground v.1.15,2013-05-03 10:15:00,
2013-05-03 05:20:00,30.8,23.8,30.46,NNW,339,7.0,11.0,75,0.00,,,0.00,Wunderground v.1.15,2013-05-03 10:20:00,
2013-05-03 05:25:00,30.8,23.8,30.46,NNW,345,8.0,11.0,75,0.00,,,0.00,Wunderground v.1.15,2013-05-03 10:25:00,
2013-05-03 05:35:00,30.7,23.7,30.46,NE,49,7.0,9.0,75,0.00,,,0.00,Wunderground v.1.15,2013-05-03 10:35:00,
2013-05-03 05:40:00,30.7,23.7,30.45,North,354,7.0,8.0,75,0.00,,,0.00,Wunderground v.1.15,2013-05-03 10:40:00,
2013-05-03 05:50:00,30.8,23.8,30.45,North,4,7.0,7.0,75,0.00,,,0.00,Wunderground v.1.15,2013-05-03 10:50:00,
2013-05-03 06:00:00,30.7,23.7,30.44,NNW,347,8.0,8.0,75,0.00,,,0.00,Wunderground v.1.15,2013-05-03 11:00:00,
2013-05-03 06:05:00,30.7,23.7,30.44,NNE,23,8.0,8.0,75,0.00,,,0.00,Wunderground v.1.15,2013-05-03 11:05:00,
2013-05-03 06:15:00,30.7,23.7,30.43,NNE,16,9.0,10.0,75,0.00,,,0.00,Wunderground v.1.15,2013-05-03 11:15:00,
2013-05-03 06:25:00,30.8,23.8,30.43,North,4,8.0,9.0,75,0.00,,,0.00,Wunderground v.1.15,2013-05-03 11:25:00,
2013-05-03 06:35:00,30.8,23.8,30.44,NE,43,9.0,9.0,75,0.00,,,0.00,Wunderground v.1.15,2013-05-03 11:35:00,
2013-05-03 06:40:00,30.9,23.9,30.43,North,354,8.0,8.0,75,0.00,,,0.00,Wunderground v.1.15,2013-05-03 11:40:00,
2013-05-03 06:50:00,31.0,24.0,30.44,NNE,27,8.0,8.0,75,0.00,,,0.00,Wunderground v.1.15,2013-05-03 11:50:00,
2013-05-03 07:00:00,31.1,24.1,30.43,NNW,343,8.0,8.0,75,0.00,,,0.00,Wunderground v.1.15,2013-05-03 12:00:00,
2013-05-03 07:05:00,31.1,23.8,30.44,North,4,8.0,8.0,74,0.00,,,0.00,Wunderground v.1.15,2013-05-03 12:05:00,
2013-05-03 07:15:00,31.3,24.0,30.44,North,4,7.0,8.0,74,0.00,,,0.00,Wunderground v.1.15,2013-05-03 12:15:00,
2013-05-03 07:20:00,31.4,24.1,30.44,North,4,7.0,7.0,74,0.00,,,0.00,Wunderground v.1.15,2013-05-03 12:20:00,
2013-05-03 07:30:00,31.5,24.2,30.43,NNE,24,8.0,8.0,74,0.00,,,0.00,Wunderground v.1.15,2013-05-03 12:30:00,
2013-05-03 07:35:00,31.5,24.2,30.43,NNE,31,8.0,8.0,74,0.00,,,0.00,Wunderground v.1.15,2013-05-03 12:35:00,
2013-05-03 07:45:00,31.5,24.2,30.43,NNE,26,9.0,9.0,74,0.00,,,0.00,Wunderground v.1.15,2013-05-03 12:45:00,
2013-05-03 07:50:00,31.5,23.8,30.43,North,359,9.0,9.0,73,0.00,,,0.00,Wunderground v.1.15,2013-05-03 12:50:00,
2013-05-03 08:00:00,31.7,24.0,30.43,NNE,21,9.0,9.0,73,0.00,,,0.00,Wunderground v.1.15,2013-05-03 13:00:00,
2013-05-03 08:05:00,32.0,24.3,30.43,North,9,8.0,9.0,73,0.00,,,0.00,Wunderground v.1.15,2013-05-03 13:05:00,
2013-05-03 08:15:00,32.3,24.6,30.42,NNE,14,7.0,12.0,73,0.00,,,0.00,Wunderground v.1.15,2013-05-03 13:15:00,
2013-05-03 08:20:00,32.5,24.5,30.42,NNE,21,7.0,14.0,72,0.00,,,0.00,Wunderground v.1.15,2013-05-03 13:20:00,
2013-05-03 08:30:00,32.5,24.5,30.41,NE,45,9.0,9.0,72,0.00,,,0.00,Wunderground v.1.15,2013-05-03 13:30:00,
2013-05-03 08:35:00,32.7,24.7,30.41,NNE,23,8.0,9.0,72,0.00,,,0.00,Wunderground v.1.15,2013-05-03 13:35:00,
2013-05-03 08:45:00,32.9,24.9,30.41,North,359,9.0,15.0,72,0.00,,,0.00,Wunderground v.1.15,2013-05-03 13:45:00,
2013-05-03 08:50:00,33.1,24.7,30.41,North,350,9.0,9.0,71,0.00,,,0.00,Wunderground v.1.15,2013-05-03 13:50:00,
2013-05-03 09:00:00,33.7,25.0,30.40,NNE,27,8.0,8.0,70,0.00,,,0.00,Wunderground v.1.15,2013-05-03 14:00:00,
2013-05-03 09:05:00,33.7,25.0,30.40,NNE,23,9.0,11.0,70,0.00,,,0.00,Wunderground v.1.15,2013-05-03 14:05:00,
2013-05-03 09:15:00,34.0,25.2,30.40,NNE,18,9.0,9.0,70,0.00,,,0.00,Wunderground v.1.15,2013-05-03 14:15:00,
2013-05-03 09:20:00,34.0,25.2,30.39,NNE,14,9.0,9.0,70,0.00,,,0.00,Wunderground v.1.15,2013-05-03 14:20:00,
2013-05-03 09:30:00,34.4,25.3,30.39,NE,41,8.0,12.0,69,0.00,,,0.00,Wunderground v.1.15,2013-05-03 14:30:00,
2013-05-03 09:40:00,34.8,25.3,30.39,North,10,9.0,9.0,68,0.00,,,0.00,Wunderground v.1.15,2013-05-03 14:40:00,
2013-05-03 09:45:00,35.1,25.6,30.39,NE,43,10.0,10.0,68,0.00,,,0.00,Wunderground v.1.15,2013-05-03 14:45:00,
2013-05-03 09:55:00,35.3,25.4,30.39,NNE,27,9.0,10.0,67,0.00,,,0.00,Wunderground v.1.15,2013-05-03 14:55:00,
2013-05-03 10:00:00,35.5,25.6,30.39,NNE,30,9.0,9.0,67,0.00,,,0.00,Wunderground v.1.15,2013-05-03 15:00:00,
2013-05-03 10:05:00,35.9,26.0,30.40,NE,39,8.0,9.0,67,0.00,,,0.00,Wunderground v.1.15,2013-05-03 15:05:00,
2013-05-03 10:15:00,35.9,25.3,30.39,ENE,58,8.0,12.0,65,0.00,,,0.00,Wunderground v.1.15,2013-05-03 15:15:00,
2013-05-03 10:20:00,35.8,25.5,30.39,NE,51,9.0,9.0,66,0.00,,,0.00,Wunderground v.1.15,2013-05-03 15:20:00,
2013-05-03 10:30:00,35.9,25.6,30.38,NNW,336,9.0,9.0,66,0.00,,,0.00,Wunderground v.1.15,2013-05-03 15:30:00,
2013-05-03 10:40:00,36.4,25.7,30.38,North,4,8.0,15.0,65,0.00,,,0.00,Wunderground v.1.15,2013-05-03 15:40:00,
2013-05-03 10:45:00,36.2,25.6,30.38,North,349,9.0,15.0,65,0.00,,,0.00,Wunderground v.1.15,2013-05-03 15:45:00,
2013-05-03 10:55:00,36.3,25.3,30.37,NNE,19,11.0,15.0,64,0.00,,,0.00,Wunderground v.1.15,2013-05-03 15:55:00,
2013-05-03 11:00:00,36.6,25.6,30.37,NE,42,11.0,11.0,64,0.00,,,0.00,Wunderground v.1.15,2013-05-03 16:00:00,
2013-05-03 11:05:00,37.2,25.8,30.37,NNW,345,10.0,11.0,63,0.00,,,0.00,Wunderground v.1.15,2013-05-03 16:05:00,
2013-05-03 11:15:00,37.5,25.7,30.36,North,354,9.0,9.0,62,0.00,,,0.00,Wunderground v.1.15,2013-05-03 16:15:00,
2013-05-03 11:20:00,38.0,25.7,30.36,North,359,9.0,15.0,61,0.00,,,0.00,Wunderground v.1.15,2013-05-03 16:20:00,
2013-05-03 11:30:00,38.2,25.5,30.36,NNE,23,11.0,11.0,60,0.00,,,0.00,Wunderground v.1.15,2013-05-03 16:30:00,
2013-05-03 11:40:00,38.9,25.8,30.35,North,354,11.0,11.0,59,0.00,,,0.00,Wunderground v.1.15,2013-05-03 16:40:00,
2013-05-03 11:50:00,40.0,26.4,30.35,NNE,24,10.0,10.0,58,0.00,,,0.00,Wunderground v.1.15,2013-05-03 16:50:00,
2013-05-03 12:00:00,40.2,26.2,30.34,North,350,10.0,10.0,57,0.00,,,0.00,Wunderground v.1.15,2013-05-03 17:00:00,
2013-05-03 12:05:00,40.7,27.1,30.34,NNE,30,9.0,12.0,58,0.00,,,0.00,Wunderground v.1.15,2013-05-03 17:05:00,
2013-05-03 12:15:00,40.4,26.8,30.33,ENE,77,10.0,13.0,58,0.00,,,0.00,Wunderground v.1.15,2013-05-03 17:15:00,
2013-05-03 12:20:00,40.0,25.6,30.33,NNE,19,11.0,15.0,56,0.00,,,0.00,Wunderground v.1.15,2013-05-03 17:20:00,
2013-05-03 12:30:00,40.2,27.8,30.32,NE,38,11.0,13.0,61,0.00,,,0.00,Wunderground v.1.15,2013-05-03 17:30:00,
2013-05-03 12:35:00,40.3,26.7,30.31,NE,56,11.0,13.0,58,0.00,,,0.00,Wunderground v.1.15,2013-05-03 17:35:00,
2013-05-03 12:45:00,40.3,26.3,30.31,NE,44,12.0,14.0,57,0.00,,,0.00,Wunderground v.1.15,2013-05-03 17:45:00,
2013-05-03 12:50:00,40.0,26.4,30.31,NE,37,12.0,15.0,58,0.00,,,0.00,Wunderground v.1.15,2013-05-03 17:50:00,
2013-05-03 12:55:00,40.2,26.2,30.31,NNE,33,12.0,15.0,57,0.00,,,0.00,Wunderground v.1.15,2013-05-03 17:55:00,
2013-05-03 13:05:00,40.6,26.5,30.30,NNE,27,12.0,17.0,57,0.00,,,0.00,Wunderground v.1.15,2013-05-03 18:05:00,
2013-05-03 13:15:00,41.1,27.0,30.30,NNE,28,11.0,11.0,57,0.00,,,0.00,Wunderground v.1.15,2013-05-03 18:15:00,
2013-05-03 13:25:00,41.1,27.0,30.29,NNE,25,10.0,13.0,57,0.00,,,0.00,Wunderground v.1.15,2013-05-03 18:25:00,
2013-05-03 13:30:00,41.5,28.2,30.29,NNE,18,11.0,11.0,59,0.00,,,0.00,Wunderground v.1.15,2013-05-03 18:30:00,
2013-05-03 13:40:00,41.8,27.7,30.29,NE,45,10.0,14.0,57,0.00,,,0.00,Wunderground v.1.15,2013-05-03 18:40:00,
2013-05-03 13:50:00,42.1,28.4,30.28,NE,37,10.0,10.0,58,0.00,,,0.00,Wunderground v.1.15,2013-05-03 18:50:00,
2013-05-03 14:00:00,41.8,28.5,30.28,North,11,10.0,11.0,59,0.00,,,0.00,Wunderground v.1.15,2013-05-03 19:00:00,
2013-05-03 14:05:00,42.0,29.1,30.28,ENE,64,10.0,11.0,60,0.00,,,0.00,Wunderground v.1.15,2013-05-03 19:05:00,
2013-05-03 14:15:00,41.9,28.6,30.28,NNE,29,10.0,11.0,59,0.00,,,0.00,Wunderground v.1.15,2013-05-03 19:15:00,
2013-05-03 14:25:00,41.5,30.2,30.28,NNE,29,11.0,11.0,64,0.00,,,0.00,Wunderground v.1.15,2013-05-03 19:25:00,
2013-05-03 14:35:00,41.7,30.4,30.28,NNE,31,10.0,10.0,64,0.00,,,0.00,Wunderground v.1.15,2013-05-03 19:35:00,
2013-05-03 14:40:00,41.4,30.5,30.28,North,349,11.0,14.0,65,0.00,,,0.00,Wunderground v.1.15,2013-05-03 19:40:00,
2013-05-03 14:50:00,41.2,30.3,30.28,NNE,21,9.0,9.0,65,0.00,,,0.00,Wunderground v.1.15,2013-05-03 19:50:00,
2013-05-03 15:00:00,41.4,30.1,30.28,NE,45,9.0,9.0,64,0.00,,,0.00,Wunderground v.1.15,2013-05-03 20:00:00,
2013-05-03 15:05:00,41.2,30.3,30.28,NNE,26,11.0,11.0,65,0.00,,,0.00,Wunderground v.1.15,2013-05-03 20:05:00,
2013-05-03 15:15:00,41.0,30.1,30.28,NNE,18,11.0,14.0,65,0.00,,,0.00,Wunderground v.1.15,2013-05-03 20:15:00,
2013-05-03 15:25:00,40.8,29.9,30.28,ENE,57,10.0,11.0,65,0.00,,,0.00,Wunderground v.1.15,2013-05-03 20:25:00,
2013-05-03 15:35:00,40.8,30.3,30.28,NNE,20,10.0,11.0,66,0.00,,,0.00,Wunderground v.1.15,2013-05-03 20:35:00,
2013-05-03 15:45:00,41.0,30.5,30.27,NNE,30,9.0,13.0,66,0.00,,,0.00,Wunderground v.1.15,2013-05-03 20:45:00,
2013-05-03 15:50:00,40.8,30.3,30.27,ENE,69,10.0,12.0,66,0.00,,,0.00,Wunderground v.1.15,2013-05-03 20:50:00,
2013-05-03 16:00:00,40.7,30.2,30.27,ENE,60,12.0,13.0,66,0.00,,,0.00,Wunderground v.1.15,2013-05-03 21:00:00,
2013-05-03 16:05:00,40.8,30.3,30.26,NE,52,12.0,13.0,66,0.00,,,0.00,Wunderground v.1.15,2013-05-03 21:05:00,
2013-05-03 16:15:00,40.9,30.4,30.26,North,4,11.0,12.0,66,0.00,,,0.00,Wunderground v.1.15,2013-05-03 21:15:00,
2013-05-03 16:20:00,41.0,30.5,30.26,NE,54,10.0,13.0,66,0.00,,,0.00,Wunderground v.1.15,2013-05-03 21:20:00,
2013-05-03 16:30:00,40.6,29.7,30.26,NNE,29,12.0,12.0,65,0.00,,,0.00,Wunderground v.1.15,2013-05-03 21:30:00,
2013-05-03 16:35:00,40.6,29.7,30.26,NE,47,11.0,16.0,65,0.00,,,0.00,Wunderground v.1.15,2013-05-03 21:35:00,
2013-05-03 16:45:00,40.9,29.7,30.26,NE,39,10.0,11.0,64,0.00,,,0.00,Wunderground v.1.15,2013-05-03 21:45:00,
2013-05-03 16:55:00,40.9,29.7,30.25,NNE,29,9.0,11.0,64,0.00,,,0.00,Wunderground v.1.15,2013-05-03 21:55:00,
2013-05-03 17:00:00,40.9,29.7,30.25,North,4,10.0,11.0,64,0.00,,,0.00,Wunderground v.1.15,2013-05-03 22:00:00,
2013-05-03 17:05:00,40.8,29.9,30.25,North,354,10.0,11.0,65,0.00,,,0.00,Wunderground v.1.15,2013-05-03 22:05:00,
2013-05-03 17:15:00,40.8,29.9,30.25,NE,37,11.0,13.0,65,0.00,,,0.00,Wunderground v.1.15,2013-05-03 22:15:00,
2013-05-03 17:20:00,40.8,29.9,30.25,NE,45,10.0,10.0,65,0.00,,,0.00,Wunderground v.1.15,2013-05-03 22:20:00,
2013-05-03 17:30:00,40.8,30.7,30.25,NNE,27,11.0,11.0,67,0.00,,,0.00,Wunderground v.1.15,2013-05-03 22:30:00,
2013-05-03 17:35:00,40.8,30.7,30.25,NNE,30,10.0,11.0,67,0.00,,,0.00,Wunderground v.1.15,2013-05-03 22:35:00,
2013-05-03 17:45:00,40.5,32.2,30.25,NE,56,8.0,10.0,72,0.00,,,0.00,Wunderground v.1.15,2013-05-03 22:45:00,
2013-05-03 17:55:00,40.1,32.8,30.26,NE,42,8.0,12.0,75,0.00,,,0.00,Wunderground v.1.15,2013-05-03 22:55:00,
2013-05-03 18:00:00,40.0,33.0,30.26,East,83,7.0,9.0,76,0.00,,,0.00,Wunderground v.1.15,2013-05-03 23:00:00,
2013-05-03 18:05:00,39.6,33.3,30.26,NNE,23,7.0,12.0,78,0.00,,,0.00,Wunderground v.1.15,2013-05-03 23:05:00,
2013-05-03 18:15:00,38.9,33.3,30.26,NE,41,7.0,9.0,80,0.00,,,0.00,Wunderground v.1.15,2013-05-03 23:15:00,
2013-05-03 18:20:00,38.8,33.2,30.27,ENE,72,7.0,9.0,80,0.00,,,0.00,Wunderground v.1.15,2013-05-03 23:20:00,
2013-05-03 18:30:00,38.1,33.4,30.27,ENE,57,10.0,10.0,83,0.00,,,0.00,Wunderground v.1.15,2013-05-03 23:30:00,
2013-05-03 18:40:00,37.9,33.8,30.27,NE,56,8.0,8.0,85,0.00,,,0.00,Wunderground v.1.15,2013-05-03 23:40:00,
2013-05-03 18:45:00,37.7,33.6,30.27,NE,49,7.0,8.0,85,0.00,,,0.00,Wunderground v.1.15,2013-05-03 23:45:00,
2013-05-03 18:55:00,37.5,33.7,30.27,NNE,30,8.0,11.0,86,0.00,,,0.00,Wunderground v.1.15,2013-05-03 23:55:00,
2013-05-03 19:05:00,37.4,33.9,30.27,ENE,75,9.0,15.0,87,0.00,,,0.00,Wunderground v.1.15,2013-05-04 00:05:00,
2013-05-03 19:15:00,37.1,33.6,30.26,NE,56,10.0,10.0,87,0.00,,,0.00,Wunderground v.1.15,2013-05-04 00:15:00,
2013-05-03 19:25:00,36.9,33.7,30.27,NE,43,9.0,15.0,88,0.00,,,0.00,Wunderground v.1.15,2013-05-04 00:25:00,
2013-05-03 19:30:00,36.8,33.6,30.27,NE,51,9.0,9.0,88,0.00,,,0.00,Wunderground v.1.15,2013-05-04 00:30:00,
2013-05-03 19:40:00,36.7,33.5,30.27,NE,41,9.0,9.0,88,0.00,,,0.00,Wunderground v.1.15,2013-05-04 00:40:00,
2013-05-03 19:50:00,36.6,33.9,30.26,NNE,31,8.0,11.0,90,0.00,,,0.00,Wunderground v.1.15,2013-05-04 00:50:00,
2013-05-03 19:55:00,36.6,33.7,30.26,NNE,18,9.0,11.0,89,0.00,,,0.00,Wunderground v.1.15,2013-05-04 00:55:00,
2013-05-03 20:05:00,36.6,33.9,30.26,NE,50,9.0,9.0,90,0.00,,,0.00,Wunderground v.1.15,2013-05-04 01:05:00,
2013-05-03 20:15:00,36.4,33.5,30.26,NNE,29,10.0,11.0,89,0.00,,,0.00,Wunderground v.1.15,2013-05-04 01:15:00,
2013-05-03 20:25:00,36.2,33.3,30.26,NE,47,10.0,12.0,89,0.00,,,0.00,Wunderground v.1.15,2013-05-04 01:25:00,
2013-05-03 20:35:00,36.3,33.1,30.26,ENE,64,10.0,16.0,88,0.00,,,0.00,Wunderground v.1.15,2013-05-04 01:35:00,
2013-05-03 20:40:00,36.3,32.8,30.26,NE,40,11.0,12.0,87,0.00,,,0.00,Wunderground v.1.15,2013-05-04 01:40:00,
2013-05-03 20:50:00,36.2,32.7,30.26,NE,39,10.0,10.0,87,0.00,,,0.00,Wunderground v.1.15,2013-05-04 01:50:00,
2013-05-03 21:00:00,36.0,32.5,30.26,North,10,10.0,10.0,87,0.00,,,0.00,Wunderground v.1.15,2013-05-04 02:00:00,
2013-05-03 21:05:00,35.8,32.6,30.26,NE,35,11.0,11.0,88,0.00,,,0.00,Wunderground v.1.15,2013-05-04 02:05:00,
2013-05-03 21:15:00,35.3,32.4,30.26,NE,35,12.0,12.0,89,0.00,,,0.00,Wunderground v.1.15,2013-05-04 02:15:00,
2013-05-03 21:25:00,35.2,32.6,30.26,NE,56,11.0,17.0,90,0.00,,,0.00,Wunderground v.1.15,2013-05-04 02:25:00,
2013-05-03 21:35:00,35.1,32.2,30.27,ENE,73,11.0,12.0,89,0.00,,,0.00,Wunderground v.1.15,2013-05-04 02:35:00,
2013-05-03 21:45:00,35.3,32.1,30.27,ENE,60,10.0,11.0,88,0.00,,,0.00,Wunderground v.1.15,2013-05-04 02:45:00,
2013-05-03 21:50:00,35.3,31.8,30.28,NNE,30,9.0,12.0,87,0.00,,,0.00,Wunderground v.1.15,2013-05-04 02:50:00,
2013-05-03 22:00:00,35.3,31.5,30.29,ENE,66,10.0,12.0,86,0.00,,,0.00,Wunderground v.1.15,2013-05-04 03:00:00,
2013-05-03 22:05:00,35.2,31.1,30.29,ENE,62,11.0,12.0,85,0.00,,,0.00,Wunderground v.1.15,2013-05-04 03:05:00,
2013-05-03 22:15:00,35.1,31.3,30.29,NE,56,10.0,10.0,86,0.00,,,0.00,Wunderground v.1.15,2013-05-04 03:15:00,
2013-05-03 22:25:00,34.9,31.4,30.30,NE,48,8.0,8.0,87,0.00,,,0.00,Wunderground v.1.15,2013-05-04 03:25:00,
2013-05-03 22:35:00,34.7,31.5,30.30,NE,56,8.0,11.0,88,0.00,,,0.00,Wunderground v.1.15,2013-05-04 03:35:00,
2013-05-03 22:40:00,34.6,31.4,30.29,NNE,32,8.0,11.0,88,0.00,,,0.00,Wunderground v.1.15,2013-05-04 03:40:00,
2013-05-03 22:50:00,34.2,31.3,30.28,NE,41,9.0,9.0,89,0.00,,,0.00,Wunderground v.1.15,2013-05-04 03:50:00,
2013-05-03 23:00:00,33.9,31.6,30.27,NE,43,9.0,9.0,91,0.00,,,0.00,Wunderground v.1.15,2013-05-04 04:00:00,
2013-05-03 23:05:00,33.7,31.4,30.27,NE,54,9.0,9.0,91,0.00,,,0.00,Wunderground v.1.15,2013-05-04 04:05:00,
2013-05-03 23:15:00,33.5,31.2,30.26,NNE,20,10.0,13.0,91,0.00,,,0.00,Wunderground v.1.15,2013-05-04 04:15:00,
2013-05-03 23:20:00,33.4,31.1,30.26,NNE,13,10.0,11.0,91,0.00,,,0.00,Wunderground v.1.15,2013-05-04 04:20:00,
2013-05-03 23:25:00,33.4,31.1,30.26,NNE,30,10.0,11.0,91,0.00,,,0.00,Wunderground v.1.15,2013-05-04 04:25:00,
2013-05-03 23:30:00,33.5,31.2,30.26,North,359,9.0,14.0,91,0.00,,,0.00,Wunderground v.1.15,2013-05-04 04:30:00,
2013-05-03 23:35:00,33.4,31.1,30.26,NNE,30,9.0,14.0,91,0.00,,,0.00,Wunderground v.1.15,2013-05-04 04:35:00,
2013-05-03 23:45:00,33.5,30.9,30.26,North,354,9.0,12.0,90,0.00,,,0.00,Wunderground v.1.15,2013-05-04 04:45:00,
2013-05-03 23:50:00,33.5,30.9,30.26,NE,41,8.0,8.0,90,0.00,,,0.00,Wunderground v.1.15,2013-05-04 04:50:00,